TimeCDT,TemperatureF,Dew PointF,Humidity,Sea Level PressureIn,VisibilityMPH,Wind Direction,Wind SpeedMPH,Gust SpeedMPH,PrecipitationIn,Events,Conditions,WindDirDegrees,DateUTC
12:56 AM,44.1,30.0,58,29.88,10.0,NW,8.1,16.1,N/A,,Overcast,310,2013-03-25 05:56:00
1:56 AM,43.0,27.0,53,29.91,10.0,WNW,11.5,16.1,N/A,,Overcast,300,2013-03-25 06:56:00
2:56 AM,43.0,27.0,53,29.91,10.0,West,12.7,23.0,N/A,,Overcast,270,2013-03-25 07:56:00
3:56 AM,41.0,27.0,57,29.92,10.0,NW,17.3,25.3,N/A,,Partly Cloudy,310,2013-03-25 08:56:00
4:56 AM,39.0,24.1,55,29.94,10.0,WNW,9.2,20.7,N/A,,Clear,300,2013-03-25 09:56:00
5:56 AM,37.0,24.1,59,29.95,10.0,WNW,5.8,-,N/A,,Clear,300,2013-03-25 10:56:00
6:56 AM,36.0,23.0,59,29.97,10.0,Variable,6.9,-,N/A,,Clear,0,2013-03-25 11:56:00
7:56 AM,37.9,25.0,60,30.01,10.0,West,8.1,-,N/A,,Clear,270,2013-03-25 12:56:00
8:56 AM,39.0,25.0,57,30.04,10.0,WNW,8.1,20.7,N/A,,Scattered Clouds,300,2013-03-25 13:56:00
9:56 AM,42.1,25.0,51,30.06,10.0,WNW,9.2,20.7,N/A,,Clear,290,2013-03-25 14:56:00
10:56 AM,46.0,24.1,42,30.05,10.0,West,16.1,21.9,N/A,,Clear,260,2013-03-25 15:56:00
11:56 AM,48.0,25.0,41,30.04,10.0,West,15.0,21.9,N/A,,Clear,260,2013-03-25 16:56:00
12:56 PM,50.0,21.0,32,30.03,10.0,WNW,15.0,23.0,N/A,,Clear,300,2013-03-25 17:56:00
1:56 PM,52.0,17.1,25,30.01,10.0,West,24.2,32.2,N/A,,Clear,280,2013-03-25 18:56:00
2:56 PM,53.1,18.0,25,30.01,10.0,WNW,16.1,29.9,N/A,,Clear,300,2013-03-25 19:56:00
3:56 PM,54.0,18.0,24,30.00,10.0,WNW,16.1,27.6,N/A,,Clear,300,2013-03-25 20:56:00
4:56 PM,53.1,17.1,24,30.00,10.0,WNW,12.7,31.1,N/A,,Clear,290,2013-03-25 21:56:00
5:56 PM,52.0,14.0,22,30.02,10.0,WNW,12.7,27.6,N/A,,Clear,290,2013-03-25 22:56:00
6:56 PM,48.9,16.0,27,30.06,10.0,NW,11.5,18.4,N/A,,Clear,310,2013-03-25 23:56:00
7:56 PM,46.9,18.0,32,30.10,10.0,WNW,11.5,17.3,N/A,,Clear,300,2013-03-26 00:56:00
8:56 PM,44.1,19.9,38,30.14,10.0,NW,9.2,-,N/A,,Clear,320,2013-03-26 01:56:00
9:56 PM,42.1,19.9,41,30.17,10.0,NW,8.1,-,N/A,,Clear,320,2013-03-26 02:56:00
10:56 PM,39.9,21.0,47,30.18,10.0,NNW,10.4,-,N/A,,Clear,330,2013-03-26 03:56:00
11:56 PM,37.9,21.0,51,30.19,10.0,NW,5.8,-,N/A,,Clear,310,2013-03-26 04:56:00